{"data":{"norad_id":64871,"intl_designator":"2025-154C","name":"ATHENA EPIC","alt_names":[],"object_type":"PAYLOAD","status":"ACTIVE","operator":null,"country":"US","launch_date":"2025-07-23","launch_site_code":"AFWTR","launch_vehicle":null,"mission":null,"orbit_class":"UNKNOWN","rcs_meters":null,"size_class":null,"mass_kg":null,"dimensions":null,"purposes":[],"wikipedia_slug":null,"has_3d_model":false,"image_url":null,"decayed_at":null,"tle_current":{"epoch":"2026-09-21T18:22:31.546560Z","epoch_age_seconds":61895,"freshness":"FRESH","line1":"1 64871U 25154C   26264.76564290  .00000736  00000+0  73609-4 0  9996","line2":"2 64871  97.6572 326.2537 0005142 286.4347  73.6308 14.94377404 63434","mean_motion":14.94377404,"eccentricity":0.0005142,"inclination_deg":97.6572,"raan_deg":326.2537,"arg_perigee_deg":286.4347,"mean_anomaly_deg":73.6308,"bstar":7.3609e-5,"rev_number":6343,"period_min":96.361200065362,"perigee_km":580.72581345214,"apogee_km":587.88598973214,"semimajor_km":6962.4429015921,"source":"CELESTRAK","updated_at":"2026-09-22T09:00:30.011472Z"}}}